Weather History for Grayling, MI

Change the Weather History Date:

Monday, October 8, 2012

  Actual Average (KHTL) Record (KHTL)
Temperature  
Mean Temperature 43 °F 49 °F  
Max Temperature 57 °F 59 °F 84 °F (2007)
Min Temperature 29 °F 38 °F 15 °F (1923)
Degree Days  
Heating Degree Days 22 17  
Month to date heating degree days 122  
Since 1 July heating degree days 503  
Cooling Degree Days 0 0  
Month to date cooling degree days 0  
Year to date cooling degree days 285  
Moisture  
Dew Point 29 °F    
Average Humidity 56    
Maximum Humidity 88    
Minimum Humidity 37    
Precipitation  
Precipitation 0.00 in 0.08 in 1.76 in (1933)
Month to date precipitation 0.71  
Year to date precipitation 22.93  
Snow  
Snow 0.00 in 0.00 in - ()
Month to date snowfall 0.0  
Since 1 July snowfall 0.0  
Snow Depth -    
Sea Level Pressure  
Sea Level Pressure 30.04 in    
Wind  
Wind Speed 6 mph (SSW)    
Max Wind Speed 15 mph    
Max Gust Speed 23 mph    
Visibility 10 miles    
Events      
T = Trace of Precipitation, MM = Missing Value Source: NWS Daily Summary

Daily Weather History Graph

Daily Weather History Graph

Search for Another Location

Airport:

Trip Planner

Search our weather history database for the weather conditions in past years. The results will help you decide how hot, cold, wet, or windy it might be!

Date:

Astronomy

Oct. 08, 2012 Rise Set
Actual Time 7:46 AM EDT 7:05 PM EDT
Civil Twilight 7:16 AM EDT 7:34 PM EDT
Nautical Twilight 6:43 AM EDT 8:08 PM EDT
Astronomical Twilight 6:09 AM EDT 8:42 PM EDT
Moon 12:08 AM EDT (10/8) 3:09 PM EDT (10/8)
Length of Visible Light 12h 18m
Length of Day
11h 19m
Waning Gibbous, 46% of the Moon is Illuminated
Oct 8
Waning Gibbous
Oct 15
New
Oct 21
First Quarter
Oct 29
Full
Nov 6
Last Quarter

Hourly Weather History & Observations

Time (EDT) Temp. Windchill Dew Point Humidity Pressure Visibility Wind Dir Wind Speed Gust Speed Precip Events Conditions
12:14 AM 37.0 °F 31.6 °F 31.5 °F 80% 30.07 in 10.0 mi SW 6.9 mph - N/A   Clear
12:35 AM 37.0 °F 32.4 °F 30.6 °F 77% 30.07 in 10.0 mi SW 5.8 mph - N/A   Clear
12:55 AM 36.5 °F 31.0 °F 30.0 °F 77% 30.06 in 10.0 mi SW 6.9 mph - N/A   Clear
1:15 AM 35.8 °F 30.9 °F 29.7 °F 78% 30.06 in 10.0 mi SW 5.8 mph - N/A   Clear
1:30 AM 36.3 °F 32.5 °F 29.3 °F 76% 30.06 in 10.0 mi SW 4.6 mph - N/A   Clear
1:50 AM 35.2 °F 32.4 °F 28.4 °F 76% 30.06 in 10.0 mi SW 3.5 mph - N/A   Clear
2:10 AM 35.8 °F 33.0 °F 28.4 °F 75% 30.06 in 10.0 mi SW 3.5 mph - N/A   Clear
2:30 AM 36.3 °F - 27.7 °F 71% 30.06 in 10.0 mi Calm Calm - N/A   Clear
2:50 AM 37.0 °F 33.3 °F 27.3 °F 68% 30.06 in 10.0 mi SW 4.6 mph - N/A   Clear
3:10 AM 37.0 °F 34.5 °F 27.9 °F 69% 30.06 in 10.0 mi SW 3.5 mph - N/A   Clear
3:31 AM 36.7 °F 34.1 °F 27.3 °F 69% 30.05 in 10.0 mi WSW 3.5 mph - N/A   Clear
3:51 AM 36.5 °F 31.8 °F 27.5 °F 70% 30.05 in 10.0 mi WSW 5.8 mph - N/A   Clear
4:11 AM 36.9 °F 32.2 °F 27.7 °F 69% 30.05 in 10.0 mi WSW 5.8 mph - N/A   Clear
4:31 AM 37.0 °F 32.4 °F 27.3 °F 68% 30.05 in 10.0 mi SW 5.8 mph - N/A   Scattered Clouds
4:51 AM 37.0 °F - 26.8 °F 66% 30.05 in 10.0 mi Calm Calm - N/A   Scattered Clouds
5:11 AM 37.2 °F 33.6 °F 26.2 °F 65% 30.06 in 10.0 mi SSW 4.6 mph - N/A   Scattered Clouds
5:31 AM 33.4 °F - 27.5 °F 79% 30.06 in 10.0 mi Calm Calm - N/A   Clear
5:51 AM 36.1 °F 33.5 °F 26.8 °F 69% 30.06 in 10.0 mi South 3.5 mph - N/A   Clear
6:11 AM 37.0 °F 33.3 °F 27.0 °F 67% 30.06 in 10.0 mi SSW 4.6 mph - N/A   Clear
6:32 AM 35.1 °F - 25.7 °F 69% 30.07 in 10.0 mi Calm Calm - N/A   Clear
6:52 AM 34.7 °F - 25.7 °F 70% 30.07 in 10.0 mi Calm Calm - N/A   Clear
7:12 AM 34.7 °F - 26.4 °F 72% 30.07 in 10.0 mi Calm Calm - N/A   Clear
7:32 AM 34.5 °F - 27.0 °F 74% 30.07 in 10.0 mi Calm Calm - N/A   Clear
7:52 AM 29.8 °F - 25.2 °F 83% 30.08 in 10.0 mi Calm Calm - N/A   Clear
8:12 AM 30.0 °F - 26.8 °F 88% 30.08 in 10.0 mi Calm Calm - N/A   Clear
8:32 AM 34.7 °F 30.6 °F 28.0 °F 77% 30.08 in 10.0 mi South 4.6 mph - N/A   Clear
8:53 AM 37.0 °F - 28.9 °F 73% 30.08 in 10.0 mi Calm Calm - N/A   Clear
9:13 AM 39.6 °F - 29.8 °F 68% 30.08 in 10.0 mi Calm Calm - N/A   Clear
9:33 AM 40.1 °F 38.0 °F 29.3 °F 65% 30.08 in 10.0 mi SSE 3.5 mph - N/A   Clear
9:53 AM 42.3 °F - 29.7 °F 61% 30.09 in 10.0 mi Calm Calm - N/A   Clear
10:13 AM 44.8 °F 41.6 °F 29.3 °F 55% 30.08 in 10.0 mi South 5.8 mph - N/A   Clear
10:33 AM 47.3 °F - 30.7 °F 53% 30.08 in 10.0 mi SSE 6.9 mph - N/A   Clear
10:53 AM 50.0 °F - 31.8 °F 50% 30.08 in 10.0 mi SW 12.7 mph 16.1 mph N/A   Clear
11:13 AM 50.0 °F - 30.2 °F 47% 30.07 in 10.0 mi SSW 9.2 mph 16.1 mph N/A   Clear
11:33 AM 50.9 °F - 30.4 °F 45% 30.07 in 10.0 mi SW 13.8 mph 19.6 mph N/A   Clear
11:54 AM 52.2 °F - 31.3 °F 45% 30.07 in 10.0 mi SW 11.5 mph 20.7 mph N/A   Clear
12:14 PM 52.3 °F - 31.1 °F 44% 30.06 in 10.0 mi SW 11.5 mph 19.6 mph N/A   Clear
12:34 PM 54.9 °F - 32.4 °F 42% 30.06 in 10.0 mi SSW 11.5 mph 17.3 mph N/A   Clear
12:54 PM 54.9 °F - 30.9 °F 40% 30.05 in 10.0 mi SW 12.7 mph 20.7 mph N/A   Clear
1:14 PM 54.9 °F - 30.2 °F 39% 30.05 in 10.0 mi SW 12.7 mph 19.6 mph N/A   Scattered Clouds
1:34 PM 55.0 °F - 29.5 °F 38% 30.05 in 10.0 mi SSW 15.0 mph 21.9 mph N/A   Scattered Clouds
1:54 PM 55.9 °F - 29.8 °F 37% 30.04 in 10.0 mi SW 12.7 mph 19.6 mph N/A   Mostly Cloudy
2:15 PM 54.9 °F - 28.9 °F 37% 30.03 in 10.0 mi SSW 12.7 mph 23.0 mph N/A   Mostly Cloudy
2:30 PM 54.9 °F - 29.5 °F 38% 30.02 in 10.0 mi SSW 10.4 mph 19.6 mph N/A   Mostly Cloudy
2:50 PM 54.9 °F - 29.5 °F 38% 30.02 in 10.0 mi SSW 8.1 mph 19.6 mph N/A   Overcast
3:10 PM 54.9 °F - 29.3 °F 38% 30.02 in 10.0 mi SSW 9.2 mph 18.4 mph N/A   Mostly Cloudy
3:30 PM 54.9 °F - 30.6 °F 40% 30.02 in 10.0 mi South 13.8 mph 21.9 mph N/A   Overcast
3:50 PM 55.2 °F - 31.3 °F 40% 30.01 in 10.0 mi South 12.7 mph 17.3 mph N/A   Mostly Cloudy
4:10 PM 54.9 °F - 31.6 °F 41% 30.01 in 10.0 mi SSW 11.5 mph 20.7 mph N/A   Mostly Cloudy
4:31 PM 56.1 °F - 31.6 °F 39% 30.00 in 10.0 mi South 15.0 mph 20.7 mph N/A   Mostly Cloudy
4:51 PM 57.0 °F - 31.8 °F 38% 29.99 in 10.0 mi SSW 12.7 mph 18.4 mph N/A   Mostly Cloudy
5:11 PM 54.9 °F - 32.0 °F 42% 29.99 in 10.0 mi South 11.5 mph 19.6 mph N/A   Scattered Clouds
5:31 PM 54.5 °F - 32.5 °F 43% 29.99 in 10.0 mi South 12.7 mph 19.6 mph N/A   Scattered Clouds
5:51 PM 54.9 °F - 31.6 °F 41% 29.99 in 10.0 mi SSW 10.4 mph 17.3 mph N/A   Scattered Clouds
6:11 PM 53.8 °F - 31.5 °F 43% 29.99 in 10.0 mi SSW 6.9 mph - N/A   Clear
6:31 PM 52.3 °F - 31.8 °F 46% 29.99 in 10.0 mi SSW 10.4 mph 16.1 mph N/A   Clear
6:51 PM 50.9 °F - 31.5 °F 47% 29.99 in 10.0 mi South 10.4 mph 21.9 mph N/A   Clear
7:12 PM 50.0 °F - 31.6 °F 49% 29.99 in 10.0 mi South 11.5 mph - N/A   Clear
7:32 PM 50.0 °F - 31.8 °F 50% 29.99 in 10.0 mi South 6.9 mph - N/A   Scattered Clouds
7:52 PM 50.0 °F - 31.6 °F 49% 29.99 in 10.0 mi South 8.1 mph - N/A   Scattered Clouds
8:12 PM 50.0 °F - 31.1 °F 48% 29.99 in 10.0 mi South 8.1 mph - N/A   Clear
8:32 PM 50.0 °F - 30.4 °F 47% 29.99 in 10.0 mi South 8.1 mph - N/A   Clear
8:52 PM 50.0 °F - 29.8 °F 46% 29.99 in 10.0 mi South 5.8 mph - N/A   Clear
9:12 PM 50.0 °F - 28.9 °F 44% 29.99 in 10.0 mi South 6.9 mph - N/A   Clear
9:33 PM 50.0 °F - 28.4 °F 43% 29.99 in 10.0 mi South 6.9 mph 16.1 mph N/A   Scattered Clouds
9:53 PM 50.0 °F - 28.9 °F 44% 29.99 in 10.0 mi South 8.1 mph - N/A   Scattered Clouds
10:13 PM 50.0 °F - 28.8 °F 44% 29.99 in 10.0 mi South 9.2 mph - N/A   Mostly Cloudy
10:33 PM 50.0 °F - 28.8 °F 44% 29.99 in 10.0 mi South 10.4 mph 18.4 mph N/A   Overcast
10:53 PM 50.0 °F - 28.8 °F 44% 29.99 in 10.0 mi South 11.5 mph 17.3 mph N/A   Overcast
11:13 PM 50.0 °F - 29.1 °F 45% 29.99 in 10.0 mi South 10.4 mph 16.1 mph N/A   Overcast
11:54 PM 50.0 °F - 30.0 °F 46% 29.98 in 10.0 mi South 12.7 mph 17.3 mph N/A   Scattered Clouds